Location: Frizzleburg
(41.0764°N, 80.4548°W)
Time: 14:01:29
(UTC+00:00)

ALOS - Pass Details

Date: 17 November 2019
Orbit: 683 x 686 km, 97.8° (Epoch: 09 December)

Event Time Altitude Azimuth Distance (km) Brightness Sun altitude
Rises 11:33:30 0° 2° (N) 3,056 5.4 -7.5°
Reaches altitude 10° 11:35:56 10° 353° (N) 2,136 4.6 -7.1°
Maximum altitude 11:40:03 32° 291° (WNW) 1,173 3.0 -6.3°
Drops below altitude 10° 11:44:09 10° 229° (SW) 2,124 4.5 -5.6°
Sets 11:46:34 0° 219° (SW) 3,035 5.4 -5.2°
